Weather History for Twin Falls, ID

Change the Weather History Date:

Friday, January 3, 2014

  Actual Average Record
Temperature  
Mean Temperature 37 °F -  
Max Temperature 51 °F 37 °F 55 °F (2003)
Min Temperature 23 °F 21 °F -6 °F (2013)
Degree Days  
Heating Degree Days 28 36  
Month to date heating degree days 89 109  
Since 1 July heating degree days 2635 2676  
Cooling Degree Days 0 0  
Month to date cooling degree days 0 0  
Year to date cooling degree days 0 0  
Moisture  
Dew Point 24 °F    
Average Humidity 64    
Maximum Humidity 88    
Minimum Humidity 40    
Precipitation  
Precipitation T in 0.05 in 0.23 in (2002)
Month to date precipitation T 0.15  
Year to date precipitation T 0.15  
Sea Level Pressure  
Sea Level Pressure 29.95 in    
Wind  
Wind Speed 14 mph (SW)    
Max Wind Speed 26 mph    
Max Gust Speed 32 mph    
Visibility 10 miles    
Events      
T = Trace of Precipitation, MM = Missing Value Source: NWS Daily Summary

Daily Weather History Graph

Daily Weather History Graph

Search for Another Location

Airport:

Trip Planner

Search our weather history database for the weather conditions in past years. The results will help you decide how hot, cold, wet, or windy it might be!

Date:

Astronomy

Jan. 03, 2014 Rise Set
Actual Time 8:07 AM MST 5:17 PM MST
Civil Twilight 7:35 AM MST 5:49 PM MST
Nautical Twilight 7:00 AM MST 6:24 PM MST
Astronomical Twilight 6:26 AM MST 6:58 PM MST
Moon 9:32 AM MST (1/3) 8:36 PM MST (1/3)
Length of Visible Light 10h 13m
Length of Day
9h 09m
Waxing Crescent, 8% of the Moon is Illuminated
Jan 3
Waxing Crescent
Jan 7
First Quarter
Jan 15
Full
Jan 23
Last Quarter
Jan 30
New

Hourly Weather History & Observations

Time (MST) Temp. Windchill Dew Point Humidity Pressure Visibility Wind Dir Wind Speed Gust Speed Precip Events Conditions
12:53 AM 25.0 °F 18.1 °F 19.9 °F 81% 30.12 in 10.0 mi Variable 5.8 mph - N/A   Clear
1:53 AM 25.0 °F - 19.9 °F 81% 30.09 in 10.0 mi Calm Calm - N/A   Clear
2:53 AM 28.0 °F 24.2 °F 21.0 °F 75% 30.05 in 10.0 mi SE 3.5 mph - N/A   Clear
3:53 AM 28.9 °F 23.9 °F 23.0 °F 78% 30.03 in 10.0 mi ENE 4.6 mph - N/A   Clear
4:53 AM 34.0 °F 31.0 °F 26.1 °F 73% 29.99 in 10.0 mi NNE 3.5 mph - N/A   Mostly Cloudy
5:53 AM 41.0 °F 34.3 °F 27.0 °F 57% 29.96 in 10.0 mi South 11.5 mph - N/A   Partly Cloudy
6:53 AM 45.0 °F 38.2 °F 27.0 °F 49% 29.93 in 10.0 mi South 15.0 mph - N/A   Scattered Clouds
7:53 AM 45.0 °F 37.9 °F 27.0 °F 49% 29.94 in 10.0 mi SSW 16.1 mph - N/A   Mostly Cloudy
8:53 AM 45.0 °F 39.7 °F 27.0 °F 49% 29.95 in 10.0 mi SW 10.4 mph - N/A   Overcast
9:53 AM 45.0 °F 38.5 °F 28.0 °F 52% 29.94 in 10.0 mi SSW 13.8 mph - 0.00 in   Overcast
10:53 AM 46.9 °F - 28.9 °F 50% 29.96 in 10.0 mi WSW 15.0 mph - N/A   Overcast
11:53 AM 50.0 °F - 28.9 °F 44% 29.93 in 10.0 mi West 19.6 mph 28.8 mph N/A   Overcast
12:53 PM 48.0 °F - 28.0 °F 46% 29.93 in 10.0 mi West 26.5 mph 29.9 mph N/A   Clear
1:53 PM 46.9 °F - 28.9 °F 50% 29.92 in 10.0 mi West 24.2 mph 29.9 mph N/A   Partly Cloudy
2:53 PM 44.1 °F 36.2 °F 27.0 °F 51% 29.91 in 10.0 mi West 18.4 mph 28.8 mph N/A   Clear
3:53 PM 42.1 °F 33.1 °F 25.0 °F 51% 29.92 in 10.0 mi West 20.7 mph 27.6 mph N/A   Scattered Clouds
4:53 PM 39.9 °F 31.4 °F 24.1 °F 53% 29.91 in 10.0 mi WSW 16.1 mph - N/A   Mostly Cloudy
5:53 PM 39.0 °F 29.9 °F 18.0 °F 43% 29.89 in 10.0 mi WSW 17.3 mph 24.2 mph N/A   Scattered Clouds
6:53 PM 37.0 °F 28.1 °F 19.0 °F 48% 29.88 in 10.0 mi SW 15.0 mph - N/A   Mostly Cloudy
7:53 PM 37.0 °F 27.7 °F 19.0 °F 48% 29.88 in 10.0 mi SW 16.1 mph - N/A   Overcast
8:53 PM 37.0 °F 28.5 °F 18.0 °F 46% 29.90 in 10.0 mi WSW 13.8 mph - N/A   Overcast
9:53 PM 35.1 °F 25.5 °F 17.1 °F 48% 29.94 in 10.0 mi WSW 15.0 mph - N/A   Overcast
10:53 PM 32.0 °F 21.6 °F 18.0 °F 56% 29.94 in 10.0 mi WSW 15.0 mph 24.2 mph N/A   Mostly Cloudy
11:53 PM 28.9 °F 17.7 °F 19.0 °F 67% 29.96 in 10.0 mi WSW 15.0 mph - N/A   Clear